Regional Weather Roundup
Issued by NWS

Home | Current Version | Previous Version | Graphics & Text | Print | Product List | Glossary Off
Versions: 1 2 3 4 5 6 7 8 9 10 11 12 13 14 15 16 17 18 19 20 21 22 23 24 25 26 27 28 29 30 31 32 33 34 35 36 37 38 39 40 41 42 43 44 45 46 47 48 49 50

000
ASUS43 KMKX 281900
RWRWI

WISCONSIN REGIONAL WEATHER ROUNDUP
NATIONAL WEATHER SERVICE MILWAUKEE/SULLIVAN WI
200 PM CDT TUE JUL 28 2015

NOTE: "FAIR" INDICATES FEW OR NO CLOUDS BELOW 12,000 FEET WITH NO
SIGNIFICANT WEATHER AND/OR OBSTRUCTIONS TO VISIBILITY.

WIZ001-002-006>008-014>016-023>028-282000-
NORTHWEST WISCONSIN

CITY           SKY/WX    TMP DP  RH WIND       PRES   REMARKS
SUPERIOR ARPT  PTSUNNY   83  71  66 SW22G28   29.76F HX  87
ASHLAND        CLOUDY    83  68  60 SW16G30   29.80R HX  86
HAYWARD        CLOUDY    83  65  54 S21G33    29.84S HX  85
SIREN          PTSUNNY   81  67  63 S12G22    29.81F HX  84
CUMBERLAND     CLOUDY    77  68  73 S10G18    29.84F
RICE LAKE      CLOUDY    78  68  71 S10G16    29.86S HX  80
CHETEK         CLOUDY   N/A N/A N/A MISG      29.84F
LADYSMITH      CLOUDY    80  67  65 S14       29.88S HX  83
EAU CLAIRE     NOT AVBL
MENOMONIE      CLOUDY    79  71  74 S12G20    29.85F HX  82
NEW RICHMOND   PTSUNNY   79  68  68 S12G24    29.84F HX  81
OSCEOLA        PTSUNNY   80  69  70 S10G20    29.85F HX  82
$$

WIZ003>005-009-010-017-018-282000-
NORTH CENTRAL WISCONSIN

CITY           SKY/WX    TMP DP  RH WIND       PRES   REMARKS
MANITOWISH WTR CLOUDY    75  68  78 S14       29.89S
ARBOR VITAE    CLOUDY    77  67  72 S14G21    29.91R
WOODRUFF       CLOUDY    77  67  72 S14G21    29.91R
RHINELANDER    CLOUDY    80  65  59 S12G22    29.93R HX  82
EAGLE RIVER    CLOUDY    77  62  59 S9        29.92S
LAND O LAKES   CLOUDY    77  63  61 S10G18    29.92F
PHILLIPS       PTSUNNY   80  67  64 S16G26    29.87S HX  83
TOMAHAWK       PTSUNNY   78  65  65 S9        29.91R HX  80
MEDFORD        PTSUNNY   78  68  71 S16G24    29.90R HX  80
MERRILL        NOT AVBL
$$

WIZ029-030-035-036-043>047-282000-
CENTRAL WISCONSIN

CITY           SKY/WX    TMP DP  RH WIND       PRES   REMARKS
WAUSAU         CLOUDY    82  67  60 S17       29.89S HX  84
MOSINEE        MOSUNNY   79  68  69 S13       29.91F HX  81
MARSHFIELD     CLOUDY    78  68  71 S13       29.89R HX  80
STEVENS POINT  CLOUDY    78  65  64 SE8G16    29.89F HX  80
WAUPACA        PTSUNNY   84  65  53 SE14      29.91F HX  86
WAUTOMA        NOT AVBL
WISC RAPIDS    CLOUDY    82  67  60 S7        29.88S HX  84
CAMP DOUGLAS   NOT AVBL
$$

WIZ011>013-019>022-031-037>040-048>050-282000-
NORTHEAST WISCONSIN

CITY           SKY/WX    TMP DP  RH WIND       PRES   REMARKS
ANTIGO         CLOUDY    78  66  66 S14G22    29.93F HX  80
SHAWANO        CLOUDY    82  64  53 S7G17     29.91F HX  84
OCONTO         CLOUDY    83  66  56 S7        29.92F HX  85
STURGEON BAY   CLOUDY    82  64  54 S13       29.96F HX  84
GREEN BAY      PTSUNNY   88  61  40 S13       29.92F HX  88
MANITOWOC      NOT AVBL
APPLETON       PTSUNNY   84  59  42 SE16      29.93F HX  84
CLINTONVILLE   PTSUNNY   82  63  51 S17       29.91F HX  83
OSHKOSH        MOSUNNY   87  65  47 S12       29.92F HX  89
$$

WIZ032>034-041-042-053>061-282000-
SOUTHWEST WISCONSIN

CITY           SKY/WX    TMP DP  RH WIND       PRES   REMARKS
LA CROSSE      CLOUDY    79  72  79 S9        29.85F HX  82
SPARTA         CLOUDY    75  70  85 CALM      29.89R
VIROQUA        CLOUDY    73  73 100 SE16G23   29.87S
BOSCOBEL       CLOUDY    77  73  87 VRB3      29.85F
PRAIRIE DU CHI CLOUDY    75  71  85 SE3       29.86F
PLATTEVILLE    CLOUDY    76  74  96 SE10      29.88F
$$

WIZ056-057-062-063-064-067-068-282000-
SOUTH CENTRAL WISCONSIN

CITY           SKY/WX    TMP DP  RH WIND       PRES   REMARKS
REEDSBURG      CLOUDY    78  71  80 SE5       29.90F HX  80
BARABOO/DELLS  CLOUDY    80  68  66 S12       29.91F HX  82
LONE ROCK      CLOUDY    79  73  83 SE7       29.89F HX  82
MINERAL POINT  LGT RAIN  77  73  88 S15       29.90F
MADISON        CLOUDY    84  70  62 S16       29.90F HX  88
MIDDLETON      CLOUDY    84  70  63 SE12G17   29.93F HX  88
WATERTOWN      PTSUNNY   83  70  64 S8        29.96F HX  87
MONROE         CLOUDY    79  73  83 S10       29.97F HX  82
JANESVILLE     PTSUNNY   84  70  61 SW8       29.97F HX  88
$$

WIZ051-052-058>065-066-070>072-282000-
SOUTHEAST WISCONSIN

CITY           SKY/WX    TMP DP  RH WIND       PRES   REMARKS
MILWAUKEE      PTSUNNY   84  65  52 SE15      29.97F HX  86
WAUKESHA       MOSUNNY   84  64  51 S6        29.98F HX  86
MILWAUKEE/TIMM SUNNY     88  61  40 SE12      29.97F HX  88
RACINE         MOSUNNY   83  66  56 SE10      30.00F HX  85
BURLINGTON     MOSUNNY   84  69  59 S6        29.98F HX  88
KENOSHA        SUNNY     85  68  56 SE10      29.98F HX  88
FOND DU LAC    MOSUNNY   87  64  46 S14       29.94F HX  88
SHEBOYGAN      PTSUNNY   84  67  56 S12       29.96F HX  86
WEST BEND      MOSUNNY   86  64  48 SE9       29.96F HX  87
JUNEAU         MOSUNNY   83  67  58 S12G20    29.97F HX  85
$$

LSZ147-162-282000-
LAKE SUPERIOR

STATION/POSITION TIME  TEMP    WIND        PRES    WAVE
                       AIR SEA DIR/SP/G            HT/PER
                 (UTC) (F)     (DEG/KT/KT) (MB)    (FT/S)
W MID LAKE BUOY  1750   67 62  110/ 14/ 16 1009.7F   2/ 3
DEVILS ISLAND    1800   79     190/ 10/ 16 1008.5S
SAXON HARBOR     1840   82                 1008.5F
$$

LMZ867-665-643>646-282000-
LAKE MICHIGAN

STATION/POSITION TIME  TEMP    WIND        PRES    WAVE
                       AIR SEA DIR/SP/G            HT/PER
                 (UTC) (F)     (DEG/KT/KT) (MB)    (FT/S)
CHAMBERS ISLAND  1800   81     190/  3/  6 1014.6F
S GREEN BAY BUOY 1830   80 76  170/ 10/ 12 1015.1F
N MID LAKE BUOY  1750   73 71  200/  6/  8 1015.5F   0
NORTHPORT PIER   1800   77     140/  7/ 11 1014.9F
SISTER BAY       1814   84     160/ 10/ 12   N/A
ALGOMA LAKESHORE 1827             CALM       N/A
KEWAUNEE LAKESHO 1800   67     180/  8/  8 1014.7F
SHEBOYGAN LAKESH 1800   71     150/ 10/ 10 1015.2F
PORT WASHINGTON  1840   78     170/  7/  9 1015.2F
ATWATER BUOY     1800   71     140/ 10/ 12 1016.7F
MILWAUKEE LAKESH 1800   72     130/ 10/ 11   N/A
KENOSHA   LAKESH 1800   77     140/  6/  7 1015.2F
$$

TC  - TEMPERATURE IN CELSIUS
VSB - VISIBILITY IN STATUTE MILES
WCI - WIND CHILL INDEX
HX  - HEAT INDEX



USA.gov is the U.S. government's official web portal to all federal, state and local government web resources and services.